Location: Chanteloup
(48.8560°N, 2.7390°E)
Time: 15:42:27
(UTC+00:00)

Cosmos 2123 Rocket - Pass Details

Date: 24 October 2021
Orbit: 961 x 992 km, 82.9° (Epoch: 27 November)

Event Time Altitude Azimuth Distance (km) Brightness Sun altitude
Rises 17:52:17 0° 350° (N) 3,719 7.1 -12.1°
Reaches altitude 10° 17:54:49 10° 350° (N) 2,765 6.4 -12.6°
Maximum altitude 18:01:11 88° 263° (W) 996 4.1 -13.6°
Drops below altitude 10° 18:07:28 10° 174° (S) 2,731 6.3 -14.6°
Sets 18:09:58 0° 174° (S) 3,670 7.0 -15.0°
